| time (UTC) | temp F | wind direction | speed MPH | gust MPH | rain 1hr in | rain 24hr in | rain mn in | humidity % | barometer mb |
| 20260510121417 | 52 | 342 | 4.0 | 5.0 | 0.00 | 0.00 | 0.00 | 38 | 1023.8 |
| 20260510120417 | 51 | 342 | 4.0 | 5.0 | 0.00 | 0.00 | 0.00 | 37 | 1023.6 |
| 20260510115417 | 51 | 342 | 4.0 | 5.0 | 0.00 | 0.00 | 0.00 | 35 | 1023.5 |
| 20260510114417 | 52 | 342 | 3.0 | 4.0 | 0.00 | 0.00 | 0.00 | 32 | 1023.3 |
| 20260510113457 | 53 | 342 | 3.0 | 5.0 | 0.00 | 0.00 | 0.00 | 31 | 1023.5 |
| 20260510112417 | 52 | 342 | 4.0 | 5.0 | 0.00 | 0.00 | 0.00 | 33 | 1023.1 |
| 20260510111417 | 51 | 342 | 4.0 | 6.0 | 0.00 | 0.00 | 0.00 | 33 | 1023.1 |
| 20260510110437 | 52 | 342 | 4.0 | 5.0 | 0.00 | 0.00 | 0.00 | 33 | 1023.2 |
| 20260510105417 | 52 | 342 | 3.0 | 4.0 | 0.00 | 0.00 | 0.00 | 33 | 1023.0 |
| 20260510104416 | 52 | 342 | 4.0 | 5.0 | 0.00 | 0.00 | 0.00 | 33 | 1023.2 |
| 20260510103417 | 51 | 342 | 1.0 | 2.0 | 0.00 | 0.00 | 0.00 | 33 | 1022.9 |
| 20260510102416 | 51 | 342 | 1.0 | 2.0 | 0.00 | 0.00 | 0.00 | 34 | 1022.9 |
| 20260510101417 | 51 | 342 | 3.0 | 4.0 | 0.00 | 0.00 | 0.00 | 34 | 1022.8 |
| 20260510100416 | 52 | 342 | 4.0 | 5.0 | 0.00 | 0.00 | 0.00 | 34 | 1022.8 |
| 20260510095416 | 51 | 342 | 4.0 | 6.0 | 0.00 | 0.00 | 0.00 | 34 | 1022.6 |
| 20260510094416 | 51 | 342 | 3.0 | 4.0 | 0.00 | 0.00 | 0.00 | 33 | 1022.6 |
| 20260510093416 | 52 | 342 | 4.0 | 5.0 | 0.00 | 0.00 | 0.00 | 32 | 1022.5 |
| 20260510092416 | 51 | 342 | 3.0 | 5.0 | 0.00 | 0.00 | 0.00 | 34 | 1022.1 |
| 20260510091416 | 51 | 342 | 3.0 | 4.0 | 0.00 | 0.00 | 0.00 | 34 | 1022.4 |
| 20260510090417 | 52 | 342 | 2.0 | 3.0 | 0.00 | 0.00 | 0.00 | 32 | 1022.6 |
| 20260510085416 | 53 | 342 | 2.0 | 4.0 | 0.00 | 0.00 | 0.00 | 31 | 1022.5 |
| 20260510084417 | 53 | 333 | 1.0 | 3.0 | 0.00 | 0.00 | 0.00 | 30 | 1022.4 |
| 20260510083416 | 55 | 333 | 0.0 | 1.0 | 0.00 | 0.00 | 0.00 | 29 | 1022.4 |
| 20260510082437 | 55 | 356 | 2.0 | 8.0 | 0.00 | 0.00 | 0.00 | 28 | 1022.4 |
| 20260510081416 | 58 | 245 | 1.0 | 3.0 | 0.00 | 0.00 | 0.00 | 26 | 1022.5 |
| 20260510080457 | 60 | 207 | 0.0 | 1.0 | 0.00 | 0.00 | 0.00 | 23 | 1023.1 |
| 20260510075416 | 62 | 343 | 8.0 | 12.0 | 0.00 | 0.00 | 0.00 | 20 | 1023.2 |
| 20260510074416 | 61 | 355 | 8.0 | 11.0 | 0.00 | 0.00 | 0.00 | 21 | 1022.8 |
| 20260510073416 | 61 | 349 | 7.0 | 10.0 | 0.00 | 0.00 | 0.00 | 21 | 1022.9 |
| 20260510072416 | 60 | 332 | 6.0 | 9.0 | 0.00 | 0.00 | 0.00 | 22 | 1022.9 |
| 20260510071416 | 59 | 321 | 6.0 | 10.0 | 0.00 | 0.00 | 0.00 | 24 | 1022.5 |
| 20260510070416 | 57 | 315 | 8.0 | 11.0 | 0.00 | 0.00 | 0.00 | 25 | 1022.1 |
| 20260510065436 | 57 | 312 | 10.0 | 12.0 | 0.00 | 0.00 | 0.00 | 25 | 1022.0 |
| 20260510064416 | 58 | 316 | 11.0 | 13.0 | 0.00 | 0.00 | 0.00 | 24 | 1021.9 |
| 20260510063416 | 58 | 314 | 9.0 | 11.0 | 0.00 | 0.00 | 0.00 | 23 | 1021.7 |
| 20260510062416 | 58 | 310 | 10.0 | 12.0 | 0.00 | 0.00 | 0.00 | 23 | 1021.6 |
| 20260510061416 | 58 | 311 | 8.0 | 10.0 | 0.00 | 0.00 | 0.00 | 24 | 1021.3 |
| 20260510060416 | 58 | 305 | 8.0 | 12.0 | 0.00 | 0.00 | 0.00 | 24 | 1021.1 |
| 20260510055435 | 59 | 308 | 8.0 | 10.0 | 0.00 | 0.00 | 0.00 | 23 | 1021.4 |
| 20260510054415 | 59 | 314 | 9.0 | 11.0 | 0.00 | 0.00 | 0.00 | 23 | 1021.2 |
| 20260510053415 | 59 | 314 | 9.0 | 12.0 | 0.00 | 0.00 | 0.00 | 22 | 1021.1 |
| 20260510052415 | 60 | 324 | 8.0 | 11.0 | 0.00 | 0.00 | 0.00 | 21 | 1021.1 |
| 20260510051415 | 60 | 338 | 6.0 | 8.0 | 0.00 | 0.00 | 0.00 | 21 | 1020.9 |
| 20260510050415 | 59 | 330 | 5.0 | 8.0 | 0.00 | 0.00 | 0.00 | 22 | 1020.5 |
| 20260510045415 | 59 | 319 | 6.0 | 9.0 | 0.00 | 0.00 | 0.00 | 22 | 1020.6 |
| 20260510044415 | 59 | 311 | 7.0 | 9.0 | 0.00 | 0.00 | 0.00 | 22 | 1020.4 |
| 20260510043415 | 59 | 311 | 7.0 | 9.0 | 0.00 | 0.00 | 0.00 | 22 | 1020.3 |
| 20260510042415 | 60 | 328 | 6.0 | 8.0 | 0.00 | 0.00 | 0.00 | 21 | 1020.3 |
| 20260510041415 | 59 | 313 | 6.0 | 8.0 | 0.00 | 0.00 | 0.00 | 22 | 1020.3 |
| 20260510040415 | 61 | 326 | 12.0 | 15.0 | 0.00 | 0.00 | 0.00 | 22 | 1020.4 |
| 20260510035415 | 61 | 318 | 8.0 | 10.0 | 0.00 | 0.00 | 0.00 | 22 | 1020.4 |
| 20260510034435 | 62 | 314 | 5.0 | 8.0 | 0.00 | 0.00 | 0.00 | 21 | 1020.2 |
| 20260510033415 | 62 | 312 | 7.0 | 10.0 | 0.00 | 0.00 | 0.00 | 20 | 1020.2 |
| 20260510032415 | 62 | 309 | 6.0 | 8.0 | 0.00 | 0.00 | 0.00 | 20 | 1020.1 |
| 20260510031435 | 62 | 312 | 8.0 | 11.0 | 0.00 | 0.00 | 0.00 | 20 | 1020.0 |
| 20260510030415 | 63 | 326 | 4.0 | 6.0 | 0.00 | 0.00 | 0.00 | 20 | 1019.7 |
| 20260510025417 | 65 | 355 | 3.0 | 4.0 | 0.00 | 0.00 | 0.00 | 17 | 1020.0 |
| 20260510024415 | 65 | 348 | 4.0 | 5.0 | 0.00 | 0.00 | 0.00 | 17 | 1019.9 |
| 20260510023417 | 65 | 11 | 4.0 | 7.0 | 0.00 | 0.00 | 0.00 | 17 | 1019.8 |
| 20260510022455 | 66 | 355 | 2.0 | 3.0 | 0.00 | 0.00 | 0.00 | 17 | 1020.1 |
| 20260510021417 | 66 | 36 | 3.0 | 5.0 | 0.00 | 0.00 | 0.00 | 16 | 1019.6 |
| 20260510020538 | 66 | 22 | 4.0 | 8.0 | 0.00 | 0.00 | 0.00 | 16 | 1019.6 |
| 20260510015417 | 67 | 34 | 4.0 | 6.0 | 0.00 | 0.00 | 0.00 | 17 | 1019.4 |
| 20260510014417 | 68 | 43 | 4.0 | 6.0 | 0.00 | 0.00 | 0.00 | 17 | 1019.4 |
| 20260510013417 | 68 | 45 | 6.0 | 9.0 | 0.00 | 0.00 | 0.00 | 16 | 1019.3 |
| 20260510012417 | 68 | 37 | 8.0 | 12.0 | 0.00 | 0.00 | 0.00 | 15 | 1019.5 |
| 20260510011417 | 69 | 50 | 5.0 | 8.0 | 0.00 | 0.00 | 0.00 | 15 | 1019.8 |
| 20260510010437 | 69 | 30 | 5.0 | 9.0 | 0.00 | 0.00 | 0.00 | 15 | 1019.8 |
| 20260510005417 | 69 | 358 | 11.0 | 14.0 | 0.00 | 0.00 | 0.00 | 16 | 1019.8 |
| 20260510004417 | 70 | 14 | 8.0 | 13.0 | 0.00 | 0.00 | 0.00 | 15 | 1019.8 |
| 20260510003417 | 70 | 40 | 7.0 | 12.0 | 0.00 | 0.00 | 0.00 | 15 | 1019.8 |
| 20260510002417 | 70 | 347 | 7.0 | 12.0 | 0.00 | 0.00 | 0.00 | 16 | 1019.8 |
| 20260510001416 | 70 | 39 | 10.0 | 13.0 | 0.00 | 0.00 | 0.00 | 15 | 1020.1 |
| 20260510000418 | 70 | 27 | 7.0 | 16.0 | 0.00 | 0.00 | 0.00 | 15 | 1020.1 |
| 20260509235417 | 70 | 46 | 10.0 | 14.0 | 0.00 | 0.00 | 0.00 | 15 | 1020.0 |
| 20260509234417 | 70 | 26 | 12.0 | 18.0 | 0.00 | 0.00 | 0.00 | 15 | 1020.1 |
| 20260509233437 | 70 | 50 | 11.0 | 15.0 | 0.00 | 0.00 | 0.00 | 15 | 1020.0 |
| 20260509232416 | 70 | 12 | 10.0 | 15.0 | 0.00 | 0.00 | 0.00 | 16 | 1020.0 |
| 20260509231416 | 69 | 42 | 15.0 | 21.0 | 0.00 | 0.00 | 0.00 | 17 | 1020.1 |
| 20260509230416 | 69 | 9 | 9.0 | 27.0 | 0.00 | 0.00 | 0.00 | 17 | 1020.1 |
| 20260509225416 | 70 | 23 | 15.0 | 19.0 | 0.00 | 0.00 | 0.00 | 17 | 1020.0 |
| 20260509224436 | 69 | 2 | 12.0 | 22.0 | 0.00 | 0.00 | 0.00 | 16 | 1020.0 |
| 20260509223416 | 70 | 0 | 16.0 | 27.0 | 0.00 | 0.00 | 0.00 | 16 | 1020.0 |
| 20260509222416 | 70 | 15 | 10.0 | 18.0 | 0.00 | 0.00 | 0.00 | 17 | 1020.0 |
| 20260509221416 | 70 | 28 | 15.0 | 22.0 | 0.00 | 0.00 | 0.00 | 17 | 1020.5 |
| 20260509220416 | 69 | 36 | 7.0 | 12.0 | 0.00 | 0.00 | 0.00 | 19 | 1020.6 |
| 20260509215416 | 69 | 352 | 13.0 | 20.0 | 0.00 | 0.00 | 0.00 | 19 | 1020.8 |
| 20260509214416 | 69 | 11 | 6.0 | 12.0 | 0.00 | 0.00 | 0.00 | 19 | 1020.8 |
| 20260509213416 | 69 | 19 | 6.0 | 13.0 | 0.00 | 0.00 | 0.00 | 18 | 1020.8 |
| 20260509212416 | 69 | 349 | 7.0 | 15.0 | 0.00 | 0.00 | 0.00 | 19 | 1020.8 |
| 20260509211436 | 69 | 353 | 10.0 | 17.0 | 0.00 | 0.00 | 0.00 | 22 | 1020.9 |
| 20260509210416 | 69 | 3 | 10.0 | 14.0 | 0.00 | 0.00 | 0.00 | 22 | 1020.9 |
| 20260509205416 | 69 | 337 | 7.0 | 12.0 | 0.00 | 0.00 | 0.00 | 22 | 1021.0 |
| 20260509204436 | 69 | 5 | 7.0 | 17.0 | 0.00 | 0.00 | 0.00 | 22 | 1021.4 |
| 20260509203416 | 70 | 315 | 8.0 | 15.0 | 0.00 | 0.00 | 0.00 | 21 | 1021.3 |
| 20260509202416 | 70 | 331 | 10.0 | 16.0 | 0.00 | 0.00 | 0.00 | 22 | 1021.3 |
| 20260509201416 | 69 | 340 | 10.0 | 13.0 | 0.00 | 0.00 | 0.00 | 22 | 1021.3 |
| 20260509200416 | 68 | 344 | 7.0 | 11.0 | 0.00 | 0.00 | 0.00 | 23 | 1021.0 |
| 20260509195416 | 69 | 2 | 7.0 | 19.0 | 0.00 | 0.00 | 0.00 | 23 | 1021.5 |
| 20260509194416 | 68 | 350 | 10.0 | 18.0 | 0.00 | 0.00 | 0.00 | 22 | 1021.6 |
| 20260509193416 | 68 | 38 | 12.0 | 16.0 | 0.00 | 0.00 | 0.00 | 23 | 1021.6 |
| 20260509192416 | 67 | 351 | 12.0 | 16.0 | 0.00 | 0.00 | 0.00 | 23 | 1021.4 |
| 20260509191436 | 68 | 25 | 9.0 | 14.0 | 0.00 | 0.00 | 0.00 | 23 | 1021.8 |
| 20260509190436 | 67 | 24 | 10.0 | 14.0 | 0.00 | 0.00 | 0.00 | 23 | 1021.8 |
| 20260509185416 | 68 | 343 | 10.0 | 18.0 | 0.00 | 0.00 | 0.00 | 23 | 1021.9 |
| 20260509184416 | 66 | 346 | 10.0 | 18.0 | 0.00 | 0.00 | 0.00 | 23 | 1021.8 |
| 20260509183416 | 67 | 39 | 12.0 | 16.0 | 0.00 | 0.00 | 0.00 | 24 | 1021.8 |
| 20260509182416 | 66 | 347 | 13.0 | 17.0 | 0.00 | 0.00 | 0.00 | 24 | 1021.8 |
| 20260509181416 | 66 | 354 | 13.0 | 17.0 | 0.00 | 0.00 | 0.00 | 25 | 1021.6 |
| 20260509180416 | 66 | 353 | 13.0 | 20.0 | 0.00 | 0.00 | 0.00 | 25 | 1021.6 |
| 20260509175416 | 66 | 10 | 11.0 | 16.0 | 0.00 | 0.00 | 0.00 | 25 | 1021.6 |
| 20260509174416 | 66 | 357 | 16.0 | 24.0 | 0.00 | 0.00 | 0.00 | 24 | 1021.6 |
| 20260509173416 | 65 | 22 | 12.0 | 18.0 | 0.00 | 0.00 | 0.00 | 24 | 1021.6 |
| 20260509172456 | 65 | 354 | 9.0 | 14.0 | 0.00 | 0.00 | 0.00 | 25 | 1021.3 |
| 20260509171415 | 65 | 10 | 14.0 | 23.0 | 0.00 | 0.00 | 0.00 | 24 | 1021.5 |
| 20260509170415 | 64 | 27 | 7.0 | 17.0 | 0.00 | 0.00 | 0.00 | 26 | 1021.3 |
| 20260509165416 | 64 | 31 | 10.0 | 14.0 | 0.00 | 0.00 | 0.00 | 26 | 1021.3 |
| 20260509164416 | 64 | 349 | 13.0 | 19.0 | 0.00 | 0.00 | 0.00 | 25 | 1021.4 |
| 20260509163416 | 64 | 19 | 9.0 | 15.0 | 0.00 | 0.00 | 0.00 | 26 | 1021.5 |
| 20260509162415 | 64 | 25 | 13.0 | 18.0 | 0.00 | 0.00 | 0.00 | 26 | 1021.5 |
| 20260509161416 | 63 | 0 | 12.0 | 16.0 | 0.00 | 0.00 | 0.00 | 26 | 1021.6 |
| 20260509160415 | 63 | 30 | 10.0 | 21.0 | 0.00 | 0.00 | 0.00 | 25 | 1021.4 |
| 20260509155416 | 63 | 355 | 12.0 | 15.0 | 0.00 | 0.00 | 0.00 | 26 | 1021.5 |
| 20260509154415 | 63 | 349 | 9.0 | 13.0 | 0.00 | 0.00 | 0.00 | 26 | 1021.2 |
| 20260509153436 | 63 | 24 | 6.0 | 11.0 | 0.00 | 0.00 | 0.00 | 26 | 1021.2 |
| 20260509152415 | 63 | 14 | 8.0 | 14.0 | 0.00 | 0.00 | 0.00 | 26 | 1020.8 |
| 20260509151435 | 62 | 315 | 12.0 | 26.0 | 0.00 | 0.00 | 0.00 | 27 | 1021.0 |
| 20260509150456 | 62 | 19 | 15.0 | 23.0 | 0.00 | 0.00 | 0.00 | 27 | 1020.7 |
| 20260509145415 | 62 | 8 | 10.0 | 16.0 | 0.00 | 0.00 | 0.00 | 28 | 1020.7 |
| 20260509144435 | 62 | 8 | 10.0 | 20.0 | 0.00 | 0.00 | 0.00 | 28 | 1021.0 |
| 20260509143415 | 62 | 8 | 8.0 | 17.0 | 0.00 | 0.00 | 0.00 | 28 | 1021.0 |
| 20260509142415 | 61 | 14 | 11.0 | 15.0 | 0.00 | 0.00 | 0.00 | 28 | 1021.0 |
| 20260509141415 | 62 | 301 | 8.0 | 14.0 | 0.00 | 0.00 | 0.00 | 29 | 1021.7 |
| 20260509140415 | 61 | 2 | 8.0 | 15.0 | 0.00 | 0.00 | 0.00 | 29 | 1021.6 |
| 20260509135415 | 61 | 33 | 6.0 | 10.0 | 0.00 | 0.00 | 0.00 | 30 | 1021.7 |
| 20260509134415 | 60 | 317 | 7.0 | 13.0 | 0.00 | 0.00 | 0.00 | 30 | 1021.6 |
| 20260509133415 | 60 | 360 | 5.0 | 14.0 | 0.00 | 0.00 | 0.00 | 30 | 1021.5 |
| 20260509132415 | 60 | 337 | 10.0 | 14.0 | 0.00 | 0.00 | 0.00 | 30 | 1021.1 |
| 20260509131435 | 59 | 302 | 6.0 | 12.0 | 0.00 | 0.00 | 0.00 | 30 | 1021.0 |
| 20260509130415 | 59 | 322 | 9.0 | 14.0 | 0.00 | 0.00 | 0.00 | 31 | 1021.0 |
| 20260509125435 | 59 | 321 | 10.0 | 17.0 | 0.00 | 0.00 | 0.00 | 31 | 1020.7 |
| 20260509124415 | 59 | 306 | 11.0 | 18.0 | 0.00 | 0.00 | 0.00 | 31 | 1020.6 |
| 20260509123415 | 59 | 331 | 4.0 | 7.0 | 0.00 | 0.00 | 0.00 | 30 | 1020.5 |
| 20260509122435 | 59 | 334 | 7.0 | 16.0 | 0.00 | 0.00 | 0.00 | 30 | 1020.3 |